Date String (YYYY-MM-DD hh:mm:ss) UTC,Instrument flags,absolute air pressure of the measurement (hPa),sample flow rate (lpm),inlet stack bypass flow (lpm),air temperature of the measurement (°C),ambient temperature measured by the external sensor (°C),aerosol sample conditioner tube jacket temperature (°C),OPC LED temperature (°C),internal box temperature (°C),relative humidity of the measurement (%),span deviation,mass concentration of particles derived from Lorenz-Mie calculation of OPC scattering (μg/m³),mass concentration of particles derived from Lorenz-Mie calculation of OPC scattering (μg/m³),mass concentration of particles derived from Lorenz-Mie calculation of OPC scattering (μg/m³)
DateTimeUTC,F1_M11,P_M11,Q1_M11,Q2_M11,T1_M11,T2_M11,T3_M11,T4_M11,T5_M11,U1_M11,ZSPAN_M11,X0_M11,X2_M11,X1_M11
2024-06-16 14:00:00,SystemResetWarning,0824.5,5.00,000.00,029.9,029.1,000.0,038.3,031.7,017.5,0004.5,0017.17,0009.41,0008.33
2024-06-16 14:01:00,SystemResetWarning,0824.5,5.00,000.00,030.0,029.2,000.0,038.4,031.7,017.2,0004.7,0017.66,0009.42,0008.34
2024-06-16 14:02:00,SystemResetWarning,0824.5,5.00,000.00,030.0,029.3,000.0,038.4,031.8,017.3,0004.5,0017.35,0009.45,0008.35
2024-06-16 14:03:00,SystemResetWarning,0824.5,5.00,000.00,030.1,029.4,000.0,038.4,031.8,017.5,0004.2,0016.45,0009.54,0008.37
2024-06-16 14:04:00,SystemResetWarning,0824.6,5.01,000.00,030.1,029.5,000.0,038.4,031.9,016.8,0003.8,0016.86,0009.59,0008.38
2024-06-16 14:05:00,SystemResetWarning,0824.5,5.00,000.00,030.2,029.6,000.0,038.4,031.9,017.1,0004.0,0017.12,0009.55,0008.40
2024-06-16 14:06:00,SystemResetWarning,0824.5,5.00,000.00,030.2,029.6,000.0,038.4,032.0,017.5,0004.0,0017.21,0009.51,0008.41
2024-06-16 14:07:00,SystemResetWarning,0824.5,5.00,000.00,030.3,029.7,000.0,038.5,032.0,018.1,0004.2,0016.50,0009.47,0008.41
2024-06-16 14:08:00,SystemResetWarning,0824.5,5.00,000.00,030.3,029.8,000.0,038.5,032.0,018.1,0004.0,0016.27,0009.46,0008.39
2024-06-16 14:09:00,SystemResetWarning,0824.5,5.00,000.00,030.4,029.8,000.0,038.5,032.1,018.8,0004.1,0016.94,0009.45,0008.39
2024-06-16 14:10:00,SystemResetWarning,0824.5,5.01,000.00,030.4,029.9,000.0,038.5,032.1,020.2,0003.9,0016.55,0009.45,0008.41
2024-06-16 14:11:00,SystemResetWarning,0824.5,4.99,000.00,030.4,029.3,000.0,038.6,031.8,020.8,0003.7,0017.12,0009.45,0008.40
2024-06-16 14:12:00,SystemResetWarning,0824.4,5.00,000.00,030.0,027.0,000.0,038.7,030.7,020.9,0003.4,0018.11,0009.52,0008.40
2024-06-16 14:13:00,SystemResetWarning,0824.3,5.03,000.00,029.7,026.4,000.0,038.6,030.4,020.0,0003.8,0018.71,0009.57,0008.42
2024-06-16 14:14:00,SystemResetWarning,0824.4,4.99,000.00,029.6,026.9,000.0,038.5,030.6,020.6,0004.0,0019.11,0009.57,0008.43
2024-06-16 14:15:00,SystemResetWarning,0824.5,5.01,000.00,029.6,027.3,000.0,038.4,030.8,020.2,0004.2,0019.44,0009.54,0008.43
2024-06-16 14:16:00,SystemResetWarning,0824.6,5.00,000.00,029.6,027.7,000.0,038.3,031.0,020.6,0004.4,0020.08,0009.57,0008.42
2024-06-16 14:17:00,SystemResetWarning,0824.7,5.00,000.00,029.6,028.1,000.0,038.3,031.1,020.6,0004.5,0020.72,0009.61,0008.43
2024-06-16 14:18:00,SystemResetWarning,0824.7,5.00,000.00,029.7,028.3,000.0,038.2,031.3,021.1,0004.5,0022.01,0009.66,0008.43
2024-06-16 14:19:00,SystemResetWarning,0824.7,5.00,000.00,029.7,028.6,000.0,038.2,031.4,021.6,0004.4,0021.72,0009.65,0008.47
2024-06-16 14:20:00,SystemResetWarning,0824.7,5.00,000.00,029.8,028.8,000.0,038.2,031.5,021.3,0004.3,0021.47,0009.68,0008.49
2024-06-16 14:21:00,SystemResetWarning,0824.7,5.01,000.00,029.8,029.0,000.0,038.2,031.5,020.9,0004.4,0022.15,0009.70,0008.50
2024-06-16 14:22:00,SystemResetWarning,0824.7,5.01,000.00,029.9,029.1,000.0,038.2,031.6,021.1,0004.5,0022.58,0009.72,0008.51
2024-06-16 14:23:00,SystemResetWarning,0824.7,5.00,000.00,029.9,029.2,000.0,038.2,031.7,021.4,0004.5,0021.86,0009.72,0008.54
2024-06-16 14:24:00,SystemResetWarning,0824.7,4.99,000.00,030.0,029.3,000.0,038.2,031.7,021.2,0004.2,0022.48,0009.68,0008.55
2024-06-16 14:25:00,SystemResetWarning,0824.7,4.99,000.00,030.0,029.4,000.0,038.2,031.8,020.7,0003.9,0022.77,0009.67,0008.56
2024-06-16 14:26:00,SystemResetWarning,0824.8,5.00,000.00,030.1,029.5,000.0,038.3,031.8,020.3,0003.9,0022.77,0009.72,0008.59
2024-06-16 14:27:00,SystemResetWarning,0824.7,5.00,000.00,030.1,029.6,000.0,038.3,031.9,021.0,0003.7,0022.88,0009.80,0008.62
2024-06-16 14:28:00,SystemResetWarning,0824.8,5.02,000.00,030.2,029.6,000.0,038.3,031.9,021.1,0003.7,0022.90,0009.81,0008.62
2024-06-16 14:29:00,SystemResetWarning,0824.8,5.00,000.00,030.2,029.7,000.0,038.4,032.0,020.8,0003.9,0021.74,0009.82,0008.64
2024-06-16 14:30:00,SystemResetWarning,0824.8,4.99,000.00,030.3,029.8,000.0,038.4,032.0,020.9,0004.1,0021.74,0009.88,0008.66
2024-06-16 14:31:00,SystemResetWarning,0824.9,4.99,000.00,030.3,029.8,000.0,038.4,032.1,020.9,0004.4,0021.66,0009.88,0008.66
2024-06-16 14:32:00,SystemResetWarning,0824.9,5.00,000.00,030.4,029.9,000.0,038.5,032.1,020.5,0004.3,0021.17,0009.85,0008.64
2024-06-16 14:33:00,SystemResetWarning,0824.9,5.00,000.00,030.3,028.9,000.0,038.5,031.6,021.1,0004.1,0021.50,0009.83,0008.62
2024-06-16 14:34:00,SystemResetWarning,0824.8,5.00,000.00,029.9,026.6,000.0,038.6,030.5,020.4,0004.2,0020.75,0009.75,0008.57
2024-06-16 14:35:00,SystemResetWarning,0824.8,5.02,000.00,029.6,026.3,000.0,038.5,030.3,021.1,0004.4,0020.48,0009.70,0008.50
2024-06-16 14:36:00,SystemResetWarning,0824.7,4.99,000.00,029.5,026.8,000.0,038.4,030.5,019.8,0004.4,0020.35,0009.63,0008.43
2024-06-16 14:37:00,SystemResetWarning,0824.8,5.00,000.00,029.5,027.2,000.0,038.3,030.7,020.6,0004.1,0020.76,0009.47,0008.31
2024-06-16 14:38:00,SystemResetWarning,0824.8,5.00,000.00,029.5,027.6,000.0,038.2,030.9,021.1,0004.2,0020.19,0009.36,0008.20
2024-06-16 14:39:00,SystemResetWarning,0824.8,5.01,000.00,029.5,028.0,000.0,038.2,031.1,021.2,0004.4,0019.57,0009.22,0008.11
2024-06-16 14:40:00,SystemResetWarning,0824.9,5.00,000.00,029.6,028.3,000.0,038.1,031.2,020.4,0004.3,0019.58,0009.11,0008.01
2024-06-16 14:41:00,SystemResetWarning,0824.9,5.00,000.00,029.6,028.5,000.0,038.1,031.3,020.7,0004.2,0019.73,0009.01,0007.88
2024-06-16 14:42:00,SystemResetWarning,0824.9,5.00,000.00,029.7,028.7,000.0,038.1,031.4,021.0,0004.1,0020.58,0008.88,0007.75
2024-06-16 14:43:00,SystemResetWarning,0824.9,5.00,000.00,029.7,028.9,000.0,038.1,031.5,020.2,0004.0,0020.67,0008.77,0007.65
2024-06-16 14:44:00,SystemResetWarning,0824.9,5.00,000.00,029.8,029.1,000.0,038.1,031.5,020.7,0004.0,0019.33,0008.65,0007.55
2024-06-16 14:45:00,SystemResetWarning,0824.9,4.99,000.00,029.8,029.2,000.0,038.1,031.6,020.5,0003.9,0019.36,0008.58,0007.47
2024-06-16 14:46:00,SystemResetWarning,0824.9,4.99,000.00,029.9,029.3,000.0,038.1,031.7,021.3,0003.9,0019.67,0008.50,0007.41
2024-06-16 14:47:00,SystemResetWarning,0825.0,5.00,000.00,030.0,029.4,000.0,038.1,031.7,021.8,0004.0,0019.29,0008.40,0007.36
2024-06-16 14:48:00,SystemResetWarning,0824.9,5.00,000.00,030.0,029.5,000.0,038.2,031.8,021.8,0004.2,0018.22,0008.38,0007.31
2024-06-16 14:49:00,SystemResetWarning,0825.0,5.02,000.00,030.1,029.5,000.0,038.2,031.8,022.1,0003.8,0018.13,0008.34,0007.26
2024-06-16 14:50:00,SystemResetWarning,0825.1,5.00,000.00,030.1,029.6,000.0,038.2,031.9,021.9,0003.3,0018.16,0008.31,0007.22
2024-06-16 14:51:00,SystemResetWarning,0825.1,5.00,000.00,030.2,029.7,000.0,038.3,032.0,021.8,0003.3,0017.99,0008.29,0007.17
2024-06-16 14:52:00,SystemResetWarning,0825.0,4.99,000.00,030.2,029.1,000.0,038.4,031.7,022.2,0003.1,0018.13,0008.23,0007.14
2024-06-16 14:53:00,SystemResetWarning,0825.0,5.01,000.00,029.9,027.0,000.0,038.4,030.7,023.0,0001.2,0017.29,0008.16,0007.12
2024-06-16 14:54:00,SystemResetWarning,0825.0,5.01,000.00,029.5,026.2,000.0,038.4,030.2,024.3,0000.0,0017.31,0008.09,0007.08
2024-06-16 14:55:00,SystemResetWarning,0825.0,5.01,000.00,029.4,026.7,000.0,038.3,030.4,024.4,0000.0,0018.40,0008.05,0007.08
2024-06-16 14:56:00,SystemResetWarning,0825.1,4.99,000.00,029.4,027.1,000.0,038.2,030.6,024.4,0000.0,0019.48,0008.02,0007.07
2024-06-16 14:57:00,SystemResetWarning,0825.1,5.01,000.00,029.4,027.5,000.0,038.1,030.8,024.5,0000.7,0018.81,0008.07,0007.06
2024-06-16 14:58:00,SystemResetWarning,0825.2,5.00,000.00,029.4,027.8,000.0,038.0,031.0,023.6,0002.1,0019.10,0008.09,0007.04
2024-06-16 14:59:00,SystemResetWarning,0825.2,5.00,000.00,029.5,028.1,000.0,038.0,031.1,022.6,0003.4,0018.81,0008.07,0007.03
